TimeEDT,TemperatureF,Dew PointF,Humidity,Sea Level PressureIn,VisibilityMPH,Wind Direction,Wind SpeedMPH,Gust SpeedMPH,PrecipitationIn,Events,Conditions,WindDirDegrees,DateUTC
12:15 AM,64.4,64.4,100,30.20,7.0,West,3.5,-,N/A,,Clear,260,2012-10-05 04:15:00
12:55 AM,62.6,62.6,100,30.19,1.5,Calm,Calm,-,N/A,,Clear,0,2012-10-05 04:55:00
1:15 AM,62.6,62.6,100,30.19,0.8,West,6.9,-,N/A,,Mist,260,2012-10-05 05:15:00
1:35 AM,62.6,62.6,100,30.18,1.8,Calm,Calm,-,N/A,,Clear,0,2012-10-05 05:35:00
1:55 AM,62.6,62.6,100,30.18,7.0,South,4.6,-,N/A,,Clear,170,2012-10-05 05:55:00
2:15 AM,62.6,62.6,100,30.19,1.8,Calm,Calm,-,N/A,,Scattered Clouds,0,2012-10-05 06:15:00
2:35 AM,62.6,62.6,100,30.18,0.8,Calm,Calm,-,N/A,,Overcast,0,2012-10-05 06:35:00
2:55 AM,62.6,62.6,100,30.18,1.2,Calm,Calm,-,N/A,,Mostly Cloudy,0,2012-10-05 06:55:00
3:15 AM,60.8,60.8,100,30.17,0.5,Calm,Calm,-,N/A,Fog,Fog,0,2012-10-05 07:15:00
3:35 AM,60.8,60.8,100,30.16,1.8,Calm,Calm,-,N/A,,Clear,0,2012-10-05 07:35:00
3:55 AM,60.8,60.8,100,30.17,3.0,Calm,Calm,-,N/A,,Clear,0,2012-10-05 07:55:00
4:15 AM,62.6,62.6,100,30.17,5.0,Calm,Calm,-,N/A,,Clear,0,2012-10-05 08:15:00
4:35 AM,62.6,62.6,100,30.16,3.0,WNW,3.5,-,N/A,,Clear,290,2012-10-05 08:35:00
4:55 AM,62.6,62.6,100,30.17,3.0,WNW,6.9,-,N/A,,Clear,290,2012-10-05 08:55:00
5:15 AM,62.6,62.6,100,30.16,5.0,NW,11.5,-,N/A,,Clear,310,2012-10-05 09:15:00
5:35 AM,62.6,62.6,100,30.16,7.0,NW,6.9,-,N/A,,Clear,310,2012-10-05 09:35:00
5:55 AM,60.8,60.8,100,30.17,8.0,SW,3.5,-,N/A,,Clear,230,2012-10-05 09:55:00
6:15 AM,60.8,60.8,100,30.17,8.0,NW,4.6,-,N/A,,Clear,310,2012-10-05 10:15:00
6:35 AM,60.8,60.8,100,30.18,9.0,Calm,Calm,-,N/A,,Clear,0,2012-10-05 10:35:00
6:55 AM,60.8,60.8,100,30.18,5.0,Calm,Calm,-,N/A,,Clear,0,2012-10-05 10:55:00
7:15 AM,60.8,60.8,100,30.18,10.0,Calm,Calm,-,N/A,,Clear,0,2012-10-05 11:15:00
7:35 AM,60.8,60.8,100,30.18,10.0,NNW,4.6,-,N/A,,Clear,340,2012-10-05 11:35:00
7:55 AM,60.8,60.8,100,30.18,10.0,North,4.6,-,N/A,,Clear,350,2012-10-05 11:55:00
8:15 AM,60.8,60.8,100,30.18,10.0,North,5.8,-,N/A,,Clear,360,2012-10-05 12:15:00
8:35 AM,60.8,60.8,100,30.18,10.0,Calm,Calm,-,N/A,,Clear,0,2012-10-05 12:35:00
8:55 AM,60.8,60.8,100,30.18,10.0,Calm,Calm,-,N/A,,Clear,0,2012-10-05 12:55:00
9:15 AM,62.6,60.8,94,30.18,10.0,Calm,Calm,-,N/A,,Clear,0,2012-10-05 13:15:00
9:35 AM,62.6,62.6,100,30.18,10.0,NNE,4.6,-,N/A,,Clear,20,2012-10-05 13:35:00
9:55 AM,62.6,62.6,100,30.19,10.0,NNE,4.6,-,N/A,,Clear,20,2012-10-05 13:55:00
10:15 AM,64.4,62.6,94,30.18,10.0,NNE,4.6,-,N/A,,Clear,20,2012-10-05 14:15:00
10:35 AM,64.4,62.6,94,30.18,10.0,NNE,5.8,-,N/A,,Clear,20,2012-10-05 14:35:00
10:55 AM,64.4,62.6,94,30.18,10.0,NNE,4.6,-,N/A,,Clear,30,2012-10-05 14:55:00
11:15 AM,64.4,62.6,94,30.18,10.0,North,3.5,-,N/A,,Clear,10,2012-10-05 15:15:00
11:35 AM,64.4,62.6,94,30.17,10.0,NNE,5.8,-,N/A,,Clear,20,2012-10-05 15:35:00
11:55 AM,66.2,62.6,88,30.17,10.0,NE,3.5,-,N/A,,Clear,40,2012-10-05 15:55:00
12:35 PM,69.8,62.6,78,30.16,10.0,ENE,6.9,-,N/A,,Clear,60,2012-10-05 16:35:00
12:55 PM,71.6,62.6,73,30.15,10.0,ENE,8.1,-,N/A,,Clear,70,2012-10-05 16:55:00
1:15 PM,73.4,60.8,65,30.15,10.0,ENE,9.2,-,N/A,,Clear,70,2012-10-05 17:15:00
1:35 PM,73.4,60.8,65,30.14,10.0,East,9.2,-,N/A,,Clear,80,2012-10-05 17:35:00
1:55 PM,75.2,60.8,61,30.13,10.0,ENE,4.6,-,N/A,,Clear,70,2012-10-05 17:55:00
2:35 PM,78.8,59.0,51,30.11,10.0,SSW,6.9,-,N/A,,Clear,200,2012-10-05 18:35:00
2:55 PM,80.6,57.2,45,30.10,10.0,SE,8.1,-,N/A,,Clear,130,2012-10-05 18:55:00
3:15 PM,80.6,57.2,45,30.10,10.0,SSW,4.6,-,N/A,,Clear,210,2012-10-05 19:15:00
3:35 PM,78.8,57.2,47,30.09,10.0,SSW,6.9,-,N/A,,Clear,200,2012-10-05 19:35:00
3:55 PM,80.6,57.2,45,30.08,10.0,South,5.8,-,N/A,,Clear,170,2012-10-05 19:55:00
4:15 PM,80.6,57.2,45,30.07,10.0,SE,8.1,-,N/A,,Clear,140,2012-10-05 20:15:00
4:35 PM,80.6,59.0,48,30.06,10.0,SSE,9.2,17.3,N/A,,Clear,160,2012-10-05 20:35:00
4:55 PM,78.8,57.2,47,30.06,10.0,SE,9.2,-,N/A,,Clear,140,2012-10-05 20:55:00
5:15 PM,78.8,59.0,51,30.05,10.0,SE,12.7,-,N/A,,Clear,140,2012-10-05 21:15:00
5:35 PM,78.8,60.8,54,30.05,10.0,South,10.4,-,N/A,,Clear,170,2012-10-05 21:35:00
5:55 PM,78.8,60.8,54,30.05,10.0,SE,4.6,-,N/A,,Clear,140,2012-10-05 21:55:00
6:15 PM,77.0,60.8,57,30.05,10.0,SE,5.8,-,N/A,,Clear,140,2012-10-05 22:15:00
6:35 PM,75.2,62.6,65,30.04,10.0,SSE,5.8,-,N/A,,Clear,150,2012-10-05 22:35:00
6:55 PM,69.8,64.4,83,30.04,10.0,South,5.8,-,N/A,,Clear,170,2012-10-05 22:55:00
7:15 PM,69.8,64.4,83,30.04,10.0,South,5.8,-,N/A,,Clear,180,2012-10-05 23:15:00
7:35 PM,66.2,64.4,94,30.05,10.0,South,4.6,-,N/A,,Clear,180,2012-10-05 23:35:00
7:55 PM,66.2,64.4,94,30.04,10.0,SSE,3.5,-,N/A,,Clear,160,2012-10-05 23:55:00
8:15 PM,64.4,62.6,94,30.04,10.0,Calm,Calm,-,N/A,,Clear,0,2012-10-06 00:15:00
8:35 PM,62.6,62.6,100,30.04,10.0,Calm,Calm,-,N/A,,Clear,0,2012-10-06 00:35:00
8:55 PM,62.6,62.6,100,30.05,10.0,Calm,Calm,-,N/A,,Clear,0,2012-10-06 00:55:00
9:15 PM,62.6,62.6,100,30.05,10.0,Calm,Calm,-,N/A,,Clear,0,2012-10-06 01:15:00
9:35 PM,62.6,62.6,100,30.05,10.0,Calm,Calm,-,N/A,,Clear,0,2012-10-06 01:35:00
9:55 PM,62.6,62.6,100,30.05,10.0,Calm,Calm,-,N/A,,Clear,0,2012-10-06 01:55:00
10:15 PM,60.8,60.8,100,30.05,5.0,Calm,Calm,-,N/A,,Clear,0,2012-10-06 02:15:00
10:35 PM,60.8,60.8,100,30.05,4.0,Calm,Calm,-,N/A,,Clear,0,2012-10-06 02:35:00
10:55 PM,60.8,60.8,100,30.04,3.0,Calm,Calm,-,N/A,,Clear,0,2012-10-06 02:55:00
11:35 PM,60.8,60.8,100,30.04,4.0,Calm,Calm,-,N/A,,Clear,0,2012-10-06 03:35:00
11:55 PM,60.8,60.8,100,30.03,5.0,Calm,Calm,-,N/A,,Clear,0,2012-10-06 03:55:00